[ x ]
ituDewa

Jackpot

Texas Poker Multi Jackpot System

Kini Telah hadir Jackpot SUPER ROYAL FLUSH

Kini Telah hadir Jackpot 2000 (khusus table VIP keatas).

Ikutilah global jackpot yang tersedia di system kami, dengan system jackpot terbaru dan pertama di indonesia, anda dapat membeli jackpot dengan harga 100 rupiah saja dan menangkan hadiahnya hingga puluhan juta rupiah.

Jackpot bukanlah suatu keharusan untuk dibeli, namun kami memberikan suatu fitur tambahan untuk member tercinta dari www.laparlagi.com.

Terdapat tiga pilihan harga jackpot yang bisa anda beli yaitu :100,500,1000 dan 2000(khusus table VIP Keatas) rupiah.

Hadiah dari Multi jackpot system www.laparlagi.com

  1. full house x 10 harga jackpot yang anda beli.
      (contoh:anda membeli 1000 maka:1000 X10 = 10.000)
  2. four of kind x 250 harga jackpot yang anda beli
      (contoh:anda membeli 1000 maka:1000 X250 = 250.000)
  3. Straight flush x 1200
      (contoh:anda membeli 1000 maka:1000 X1200 = 1.200.000)
  4. Royal flush x 10000 harga jackpot yang anda beli
      (contoh:anda membeli 1000 maka:1000 X10000 = 10.000.000)
  5. SUPER ROYAL FLUSH x 30000 harga jackpot yang anda beli
      (contoh:anda membeli 1000 maka:1000 X30000 = 30.000.000)

Kondisi kartu

  1. full house adalah kondisi kartu dimana kartu anda dan kartu tengah dengan total 7 kartu bisa mendapatkan nilai 5 kartu dengan kombinasi 1 tris(three of kind) dan 1 pair, contoh 3 kartu 10 dan 2 kartu 5
  2. Four of kind adalah kondisi kartu dimana kartu anda dan kartu tengah dengan total 7 kartu bisa mendapatkan nilai 5 kartu dengan kombinasi 4 kartu yang sama jumlah dan 1 kartu apapun juga contoh anda mendapatkan 4 buah kartu angka 3 dan 1 kartu apapun.
  3. Staright flush adalah kondisi kartu dimana kartu anda dan kartu tengah dengan total 7 kartu bisa mendapatkan nilai 5 kartu dengan kombinasi seri / staright dengan kembang yang sama contoh : urutan kartu dari angka 5, 6, 7, 8 , 9 10 dengan kembang yg sama misalnya as hati
  4. Royal flush adalah kondisi kartu dimana kartu anda dan kartu tengah dengan total 7 kartu bisa mendapatkan nilai 5 kartu dengan kombinasi seri / staright dengan kembang yang sama tetapi kartu tersebut haruslah dimulai dari 10. contoh 10, Queen, Jack, King dan aces dengan kembang yang sama
  5. Super Royal flush adalah kondisi kartu dimana Kedua kartu anda digabung dengan 3 kartu pertama meja haruslah royal flush. contoh kartu anda 10,Queen kembang sama dan 3 kartu pertama meja adalah Jack, King dan aces dengan kembang yang sama

Demikian adalah penjelasan dari Multi Jackpot www.laparlagi.com terima kasih dan selamat bermain salam hoki dari kami

Texas Poker Jackpot Winner

TOP SUPER ROYAL FLUSH
No.TanggalNamaPriceWin
121/09 14:11ROYALJOZZSuper Royal flush60,000,000
221/09 13:43BA_ATIYOSuper Royal flush6,000,000
321/09 12:23B8EKCBJIYMSuper Royal flush3,000,000
421/09 08:32TUPO25Super Royal flush3,000,000
521/09 07:21SLOME898Super Royal flush30,000,000
TOP ROYAL FLUSH
No.TanggalNamaPriceWin
122/09 00:25A0B1B848Royal flush2,000,000
222/09 00:23WOLFRAMRoyal flush5,000,000
322/09 00:23GRUFFINZ1Royal flush2,000,000
422/09 00:23UG7YXT7Z4HRoyal flush5,000,000
522/09 00:20PSSI21Royal flush2,000,000
TOP STRAIGHT FLUSH
No.TanggalNamaPriceWin
122/09 00:26CC3C8F22Straight Flush1,200,000
222/09 00:26DONRICOStraight Flush240,000
322/09 00:25IDNGGSLO43Straight Flush240,000
422/09 00:19LGTS5Straight Flush120,000
522/09 00:18PRORONGA12Straight Flush120,000
LATEST JACKPOT
No.TanggalNamaPriceWin
122/09 00:27DANTI123Four Of A Kind125,000
222/09 00:27ODENUHFull House5,000
322/09 00:27HITAM89Full House2,000
422/09 00:27OMJP2JTFull House1,000
522/09 00:27JENGG0T19Full House5,000
622/09 00:27GYHGHFull House2,000
722/09 00:27F8561227Full House10,000
822/09 00:26JALU_07Full House5,000
922/09 00:26YOQNXT2FWFFull House2,000
1022/09 00:26A1D4__4Full House10,000
1122/09 00:26SARI0277Full House2,000
1222/09 00:26BOINX92Full House5,000
1322/09 00:26AUNET200Full House10,000
1422/09 00:26QUANZA23Four Of A Kind25,000
1522/09 00:26SINARMAS88Full House2,000
1622/09 00:26BOCILJEFull House1,000
1722/09 00:26AKMAL1982Full House1,000
1822/09 00:26EQY00Full House2,000
1922/09 00:26BEBEK69Full House10,000
2022/09 00:26SAYANK123Full House2,000
2122/09 00:26XENIA93Full House5,000
2222/09 00:26SRD51Full House500
2322/09 00:26DON1278Full House5,000
2422/09 00:26TASYAPROFull House2,000
2522/09 00:26D7B4548AFull House10,000
2622/09 00:26RECHAFull House2,000
2722/09 00:26CC3C8F22Straight Flush1,200,000
2822/09 00:26REDSTAR40Full House2,000
2922/09 00:26LAE_AJAFull House10,000
3022/09 00:26KEKREK303Full House5,000
3122/09 00:26DEKYKORODFull House2,000
3222/09 00:26DONRICOStraight Flush240,000
3322/09 00:26GALAXY70Four Of A Kind500,000
3422/09 00:26INYIAK1305Four Of A Kind500,000
3522/09 00:26ECOECOFour Of A Kind250,000
3622/09 00:26REEY90Four Of A Kind250,000
3722/09 00:26UMAR99999Full House10,000
3822/09 00:26CARLOS123Full House2,000
3922/09 00:26CACAKCSFull House1,000
4022/09 00:26K1K0POKSPKFull House2,000
4122/09 00:26CEMUNKFull House1,000
4222/09 00:26LADUSHING1Full House2,000
4322/09 00:2612VOLTFull House2,000
4422/09 00:26ELLANYFull House5,000
4522/09 00:26WARGET69Full House5,000
4622/09 00:26C2568030Full House10,000
4722/09 00:26BOMER07Full House5,000
4822/09 00:26B61CANSAS375Full House2,000
4922/09 00:26W6GYI2G9VGFull House20,000
5022/09 00:26ZENDOL44Full House5,000

Domino Multi Jackpot System

Ikutilah global jackpot yang tersedia di system kami, dengan system jackpot terbaru dan pertama di indonesia, anda dapat membeli jackpot dengan harga 100 rupiah saja dan menangkan hadiahnya hingga puluhan juta rupiah.

Jackpot bukanlah suatu keharusan untuk dibeli, namun kami memberikan suatu fitur tambahan untuk member tercinta dari www.laparlagi.com.

Terdapat tiga pilihan harga jackpot yang bisa anda beli yaitu :100,500 dan 1000 rupiah.

Hadiah dari Multi jackpot system www.laparlagi.com

  1. Murni Kecil x 50 harga jackpot yang anda beli.
      (contoh:anda membeli 1000 maka:1000 X 50 = 50.000)
  2. Murni Besar x 50 harga jackpot yang anda beli
      (contoh:anda membeli 1000 maka:1000 X 50 = 50.000)
  3. BALAK x 100 harga jackpot yang anda beli
      (contoh:anda membeli 1000 maka:1000 X 100 = 100.000)
  4. ENAM DEWA x 6666 harga jackpot yang anda beli
      (contoh:anda membeli 1000 maka:1000 X 6666 = 6.666.000)

Demikian adalah penjelasan dari Multi Jackpot www.laparlagi.com terima kasih dan selamat bermain salam hoki dari kami

Domino Jackpot Winner

TOP ENAM DEWA
No.TanggalNamaPriceWin
121/09 23:35TEMPE444murni enam666,600
221/09 21:47MORBAG029murni enam3,333,000
321/09 21:27STW79murni enam3,333,000
421/09 21:20FIRMIHmurni enam666,600
521/09 21:02ADUL4444murni enam6,666,000
TOP BALAK
No.TanggalNamaPriceWin
122/09 00:23SOKIPUNAIbalak100,000
222/09 00:224RAMALbalak10,000
322/09 00:20AHMAD35balak100,000
422/09 00:19HAER333balak100,000
522/09 00:17MERRYJACINbalak100,000
LATEST JACKPOT
No.TanggalNamaPriceWin
122/09 00:27VIOLET72murni kecil25,000
222/09 00:27AKEB4murni kecil5,000
322/09 00:26TNHOKY66murni kecil5,000
422/09 00:26SUTAR1234murni besar50,000
522/09 00:26LOTUS0308murni besar50,000
622/09 00:25CEBEEM123lucky9910,000
722/09 00:25TM0348UJQXmurni kecil50,000
822/09 00:25ASDGGHJJJJlucky9925,000
922/09 00:24SAPI1978murni besar50,000
1022/09 00:24HOKI_66murni kecil50,000
1122/09 00:24SARAHFmurni kecil50,000
1222/09 00:23SOKIPUNAIbalak100,000
1322/09 00:23T212BOM99murni besar5,000
1422/09 00:23AJASHmurni kecil25,000
1522/09 00:23ADEKBDlucky9925,000
1622/09 00:22NIW5MJ545Pmurni kecil50,000
1722/09 00:22BIGWIN_murni besar50,000
1822/09 00:224RAMALbalak10,000
1922/09 00:22NARAGUJ303murni kecil50,000
2022/09 00:22BP888002murni kecil50,000
2122/09 00:22EHBANGBENGmurni kecil5,000
2222/09 00:21SAMEN23murni kecil5,000
2322/09 00:21AJASHmurni kecil25,000
2422/09 00:21TARAUPmurni kecil50,000
2522/09 00:20M1RZ4NIlucky992,500
2622/09 00:20AMSEO99murni kecil25,000
2722/09 00:20SAPI1978murni kecil50,000
2822/09 00:20GRANDONG96murni kecil50,000
2922/09 00:20AHMAD35balak100,000
3022/09 00:20R1JWNM8F74murni besar50,000
3122/09 00:20TONO757murni kecil5,000
3222/09 00:19WIRA878murni besar50,000
3322/09 00:19HAER333balak100,000
3422/09 00:19NARAGUJ303murni kecil50,000
3522/09 00:18TOMTRGmurni kecil5,000
3622/09 00:17BLUELINK77murni kecil50,000
3722/09 00:17MERRYJACINbalak100,000
3822/09 00:16TOMTRGmurni besar5,000
3922/09 00:16E380B203lucky992,500
4022/09 00:16EEHWEH16balak50,000
4122/09 00:16LUEPOEmurni besar25,000
4222/09 00:15JPWINNER87murni kecil50,000
4322/09 00:15SOKIPUNAImurni kecil50,000
4422/09 00:15JPWINNER87murni kecil50,000
4522/09 00:14GONDEL06murni kecil5,000
4622/09 00:14RIZKYP90murni besar5,000
4722/09 00:14SAPI1978murni kecil50,000
4822/09 00:14LMBROSSObalak100,000
4922/09 00:11THEDOIbalak100,000
5022/09 00:10AALAALmurni kecil25,000

Ceme Multi Jackpot System

Jackpot dilihat dari gabungan kartu pemain dengan kartu bandar. Bandar harus membeli jackpot sebanyak jumlah player yang sedang duduk. Sebagai contoh bila terdapat 3 pemain duduk bermain, dan bandar memutuskan untuk membeli jackpot Rp 1.000, maka pada periode tersebut bandar akan membeli jackpot sebanyak 3xRp1.000 = Rp3.000.

Jackpot bukanlah suatu keharusan untuk dibeli, namun kami memberikan suatu fitur tambahan untuk member tercinta dari www.laparlagi.com.

Terdapat tiga pilihan harga jackpot yang bisa anda beli yaitu :100,500 dan 1000 rupiah.

Hadiah dari Multi jackpot system www.laparlagi.com

  1. Murni Kecil x 50 harga jackpot yang anda beli.
      (contoh:anda membeli 1000 maka:1000 X 50 = 50.000)
  2. Murni Besar x 50 harga jackpot yang anda beli
      (contoh:anda membeli 1000 maka:1000 X 50 = 50.000)
  3. BALAK x 200 harga jackpot yang anda beli
      (contoh:anda membeli 1000 maka:1000 X 200 = 200.000)
  4. ENAM DEWA x 6666 harga jackpot yang anda beli
      (contoh:anda membeli 1000 maka:1000 X 6666 = 6.666.000)

Demikian adalah penjelasan dari Multi Jackpot www.laparlagi.com terima kasih dan selamat bermain salam hoki dari kami

Ceme Jackpot Winner

TOP ENAM DEWA
No.TanggalNamaPriceWin
122/09 00:25MYLANOmurni enam6,666,000
222/09 00:25MLD1123murni enam6,666,000
322/09 00:13SANUR123murni enam6,666,000
422/09 00:13MATABIRUmurni enam6,666,000
522/09 00:12PLM1888murni enam6,666,000
TOP BALAK
No.TanggalNamaPriceWin
122/09 00:25SOVHIE2015balak100,000
222/09 00:25JOKO234balak200,000
322/09 00:24MONIICA7balak200,000
422/09 00:23DWBTNI42balak20,000
522/09 00:23GINTINGTINbalak200,000
LATEST JACKPOT
No.TanggalNamaPriceWin
122/09 00:27AQUA92murni kecil50,000
222/09 00:26WIN343murni kecil50,000
322/09 00:26H_BARIImurni kecil50,000
422/09 00:26ZENO127murni besar50,000
522/09 00:26MBAHBEK666murni besar50,000
622/09 00:26YUSRONDRmurni besar5,000
722/09 00:26NIASTNmurni kecil50,000
822/09 00:26BIJI_PELEEmurni besar50,000
922/09 00:26IKANKOIIImurni kecil50,000
1022/09 00:26SBY6FVSZVMmurni kecil50,000
1122/09 00:26SBY6FVSZVMmurni kecil50,000
1222/09 00:26LEKARTEmurni kecil25,000
1322/09 00:26NASRI02murni besar50,000
1422/09 00:26LONGOR47murni besar50,000
1522/09 00:25DON2_murni kecil50,000
1622/09 00:25DINO1509murni besar50,000
1722/09 00:25MYLANOmurni enam6,666,000
1822/09 00:25MLD1123murni enam6,666,000
1922/09 00:25SOVHIE2015balak100,000
2022/09 00:25QMORAmurni kecil50,000
2122/09 00:25TANHUNKIETmurni kecil50,000
2222/09 00:25PIONFALSmurni kecil50,000
2322/09 00:25MONIICA7murni kecil50,000
2422/09 00:25C9ZRUWJXWAmurni kecil50,000
2522/09 00:25PENG123murni kecil50,000
2622/09 00:25DEMPUL21murni besar50,000
2722/09 00:25ABANG_97murni besar5,000
2822/09 00:25DC_QWEENmurni kecil25,000
2922/09 00:25GOREEmurni kecil5,000
3022/09 00:25KORNEL86murni besar50,000
3122/09 00:25JOKO234balak200,000
3222/09 00:24POKERO1001murni kecil50,000
3322/09 00:24H4AIImurni kecil50,000
3422/09 00:24MONIICA7balak200,000
3522/09 00:24C53ANK626murni besar50,000
3622/09 00:24ENDANK78murni besar5,000
3722/09 00:24SKYCREWmurni kecil25,000
3822/09 00:24OPPPO99murni kecil25,000
3922/09 00:24BEWEYEmurni besar5,000
4022/09 00:24PABLO2112murni besar25,000
4122/09 00:24IDNGIWOX40murni besar50,000
4222/09 00:24MEMET78murni besar25,000
4322/09 00:24TERA72murni kecil50,000
4422/09 00:24VARBDGmurni kecil50,000
4522/09 00:24EDWARD64murni besar5,000
4622/09 00:24MERDEKA33murni kecil5,000
4722/09 00:24AD0EBF7Fmurni besar25,000
4822/09 00:24C53ANK626murni besar50,000
4922/09 00:24AGOESS179murni besar50,000
5022/09 00:24BEREBETmurni besar25,000